Marshfield, WI

5:08 AM CST on February 23, 2018 (GMT -0600)
Marshfield Municipal

Weather History for KMFI - April, 2014

Change the Weather History Date:

Sunday, April 27, 2014

  Actual Average Record
Temperature  
Mean Temperature 36 °F -  
Max Temperature 42 °F 64 °F 84 °F (1970)
Min Temperature 34 °F 38 °F 20 °F (1946)
Degree Days  
Heating Degree Days 28    
Moisture  
Dew Point 31 °F    
Average Humidity 78    
Maximum Humidity 86    
Minimum Humidity 67    
Precipitation  
Precipitation 0.35 in - - ()
Sea Level Pressure  
Sea Level Pressure 29.99 in    
Wind  
Wind Speed 19 mph (ESE)    
Max Wind Speed 26 mph    
Max Gust Speed 37 mph    
Visibility 9 miles    
Events Rain , Thunderstorm    
Averages and records for this station are not official NWS values.
T = Trace of Precipitation, MM = Missing Value Source: NWS Daily Summary

Daily Weather History Graph

Daily Weather History Graph

Search for Another Location

Airport or City:

Trip Planner

Search our weather history database for the weather conditions in past years. The results will help you decide how hot, cold, wet, or windy it might be!

Date:

Astronomy

Apr. 27, 2014 Rise Set
Actual Time 5:56 AM CDT 8:00 PM CDT
Civil Twilight 5:25 AM CDT 8:32 PM CDT
Nautical Twilight 4:46 AM CDT 9:11 PM CDT
Astronomical Twilight 4:03 AM CDT 9:54 PM CDT
Moon 5:02 AM CDT (4/27) 6:31 PM CDT (4/27)
Length of Visible Light 15h 07m
Length of Day
14h 03m
Waning Crescent, 3% of the Moon is Illuminated
Apr 27
Waning Crescent
Apr 29
New
May 6
First Quarter
May 14
Full
May 21
Last Quarter

Hourly Weather History & Observations

Time (CDT) Temp. Windchill Dew Point Humidity Pressure Visibility Wind Dir Wind Speed Gust Speed Precip Events Conditions
12:54 AM 39.0 °F 29.6 °F 30.9 °F 73% 30.08 in 10.0 mi East 18.4 mph 25.3 mph 0.00 in Rain Light Rain
1:54 AM 37.0 °F 27.4 °F 30.0 °F 76% 30.05 in 9.0 mi East 17.3 mph 26.5 mph 0.02 in Rain Light Rain
2:54 AM 36.0 °F 26.0 °F 28.0 °F 73% 30.05 in 10.0 mi ESE 17.3 mph 24.2 mph 0.00 in Rain Light Rain
3:54 AM 35.1 °F 24.5 °F 28.0 °F 76% 30.04 in 10.0 mi ESE 18.4 mph 25.3 mph 0.00 in Rain Light Rain
4:54 AM 34.0 °F 23.4 °F 28.9 °F 82% 30.04 in 10.0 mi East 17.3 mph 24.2 mph 0.02 in Rain Light Rain
5:54 AM 34.0 °F 24.2 °F 28.9 °F 82% 30.05 in 10.0 mi East 15.0 mph - 0.00 in Rain Light Rain
6:54 AM 35.1 °F 24.5 °F 30.0 °F 82% 30.02 in 10.0 mi East 18.4 mph - 0.00 in   Overcast
7:54 AM 36.0 °F 26.0 °F 30.0 °F 79% 30.04 in 10.0 mi ESE 17.3 mph - N/A   Overcast
8:54 AM 37.0 °F 27.0 °F 30.9 °F 79% 30.03 in 10.0 mi East 18.4 mph 27.6 mph N/A   Overcast
9:54 AM 39.0 °F 29.0 °F 33.1 °F 79% 29.99 in 10.0 mi ESE 20.7 mph 35.7 mph N/A   Mostly Cloudy
11:54 AM 39.9 °F 31.1 °F 33.1 °F 77% 30.04 in 9.0 mi ESE 17.3 mph 26.5 mph 0.00 in Rain Light Rain
12:05 PM 39.9 °F 31.8 °F 33.1 °F 77% 30.00 in 10.0 mi ESE 15.0 mph 27.6 mph 0.00 in Rain Light Rain
12:54 PM 39.9 °F 30.0 °F 33.1 °F 77% 29.99 in 7.0 mi East 21.9 mph 33.4 mph 0.00 in Rain Light Rain
1:54 PM 39.0 °F 29.3 °F 32.0 °F 76% 30.02 in 5.0 mi East 19.6 mph 27.6 mph 0.02 in Rain Light Rain
3:54 PM 37.0 °F 25.1 °F 32.0 °F 82% 29.94 in 7.0 mi East 26.5 mph 36.8 mph 0.01 in Rain Light Rain
4:54 PM 39.0 °F 27.8 °F 32.0 °F 76% 29.90 in 10.0 mi East 26.5 mph 36.8 mph 0.00 in   Mostly Cloudy
5:54 PM 39.9 °F 29.2 °F 30.9 °F 70% 29.91 in 10.0 mi East 25.3 mph 36.8 mph 0.00 in   Overcast
6:46 PM 39.0 °F 29.9 °F 30.9 °F 73% 29.94 in 4.0 mi ESE 17.3 mph 26.5 mph 0.04 in Rain , Thunderstorm Heavy Thunderstorms and Rain
6:54 PM 39.0 °F 30.3 °F 32.0 °F 76% 29.97 in 8.0 mi East 16.1 mph 25.3 mph 0.04 in Rain , Thunderstorm Light Thunderstorms and Rain
7:06 PM 39.0 °F 29.9 °F 32.0 °F 76% 29.93 in 5.0 mi ESE 17.3 mph 26.5 mph 0.01 in Rain Light Rain
7:54 PM 37.9 °F 29.6 °F 33.1 °F 83% 30.03 in 3.0 mi ESE 13.8 mph - 0.15 in Rain Rain
8:54 PM 37.9 °F 27.6 °F 34.0 °F 86% 29.99 in 10.0 mi ESE 20.7 mph 26.5 mph 0.09 in   Overcast
9:54 PM 39.0 °F 28.5 °F 34.0 °F 82% 29.95 in 10.0 mi East 23.0 mph 29.9 mph 0.00 in   Overcast
10:54 PM 39.0 °F 28.5 °F 34.0 °F 82% 29.91 in 10.0 mi East 23.0 mph 32.2 mph 0.00 in   Overcast
11:54 PM 42.1 °F 32.8 °F 32.0 °F 67% 29.87 in 10.0 mi East 21.9 mph 32.2 mph N/A   Overcast